owner,sensor,date,latitude,longitude,vertical_datum,direction_of_sea_water_velocity,sea_water_speed,upward_sea_water_velocity,qcFlag 
TABS,ioos:station:wmo:42051:1,2005-08-01T00:00:00Z,29.6350,-93.6417,2.0,30.59442065,7.446623396,-99999.0,'11133222,11111222,99999999' 
TABS,ioos:station:wmo:42051:1,2005-08-01T00:30:00Z,29.6350,-93.6417,2.0,20.57234723,8.309921781,-99999.0,'11133222,11111222,99999999' 
TABS,ioos:station:wmo:42051:1,2005-08-01T01:00:00Z,29.6350,-93.6417,2.0,29.34975831,11.50697614,-99999.0,'11111222,11111222,99999999' 
TABS,ioos:station:wmo:42051:1,2005-08-01T01:30:00Z,29.6350,-93.6417,2.0,33.95744332,16.6495075,-99999.0,'11111222,11111222,99999999' 
TABS,ioos:station:wmo:42051:1,2005-08-01T02:00:00Z,29.6350,-93.6417,2.0,42.34357356,16.01904179,-99999.0,'11111222,11111222,99999999' 
TABS,ioos:station:wmo:42051:1,2005-08-01T02:30:00Z,29.6350,-93.6417,2.0,36.32421915,14.90667636,-99999.0,'11111222,11111222,99999999' 
TABS,ioos:station:wmo:42051:1,2005-08-01T03:00:00Z,29.6350,-93.6417,2.0,35.25153378,13.02919798,-99999.0,'11111222,11111222,99999999' 
TABS,ioos:station:wmo:42051:1,2005-08-01T03:30:00Z,29.6350,-93.6417,2.0,39.25245049,10.87339873,-99999.0,'11111222,11111222,99999999' 
TABS,ioos:station:wmo:42051:1,2005-08-01T04:00:00Z,29.6350,-93.6417,2.0,52.01015849,9.617837595,-99999.0,'11133222,11111222,99999999' 
TABS,ioos:station:wmo:42051:1,2005-08-01T04:30:00Z,29.6350,-93.6417,2.0,30.86407649,1.968806745,-99999.0,'11133222,11111222,99999999' 
TABS,ioos:station:wmo:42051:1,2005-08-01T05:00:00Z,29.6350,-93.6417,2.0,42.31633635,0.906090503,-99999.0,'11133222,11111222,99999999' 
TABS,ioos:station:wmo:42051:1,2005-08-01T05:30:00Z,29.6350,-93.6417,2.0,238.3921507,1.984363878,-99999.0,'11133222,11111222,99999999' 
TABS,ioos:station:wmo:42051:1,2005-08-01T06:00:00Z,29.6350,-93.6417,2.0,257.5401518,5.376625336,-99999.0,'11133222,11111222,99999999' 
TABS,ioos:station:wmo:42051:1,2005-08-01T06:30:00Z,29.6350,-93.6417,2.0,256.7590901,5.239274759,-99999.0,'11133222,11111222,99999999' 
TABS,ioos:station:wmo:42051:1,2005-08-01T07:00:00Z,29.6350,-93.6417,2.0,259.4768061,7.994448074,-99999.0,'11133222,11111222,99999999' 
TABS,ioos:station:wmo:42051:1,2005-08-01T07:30:00Z,29.6350,-93.6417,2.0,263.5212297,8.242633074,-99999.0,'11133222,11111222,99999999' 
TABS,ioos:station:wmo:42051:1,2005-08-01T08:30:00Z,29.6350,-93.6417,2.0,258.1403871,10.0239563,-99999.0,'11111222,11111222,99999999' 
TABS,ioos:station:wmo:42051:1,2005-08-01T09:00:00Z,29.6350,-93.6417,2.0,247.6877557,9.587830829,-99999.0,'11133222,11111222,99999999' 
TABS,ioos:station:wmo:42051:1,2005-08-01T09:30:00Z,29.6350,-93.6417,2.0,269.630615,10.87022539,-99999.0,'11111222,11111222,99999999' 
TABS,ioos:station:wmo:42051:1,2005-08-01T10:00:00Z,29.6350,-93.6417,2.0,273.3766184,10.3579776,-99999.0,'11111222,11111222,99999999' 
TABS,ioos:station:wmo:42051:1,2005-08-01T10:30:00Z,29.6350,-93.6417,2.0,266.20391,14.50181023,-99999.0,'11111222,11111222,99999999' 
TABS,ioos:station:wmo:42051:1,2005-08-01T11:00:00Z,29.6350,-93.6417,2.0,276.4047587,15.77846634,-99999.0,'11111222,11111222,99999999' 
TABS,ioos:station:wmo:42051:1,2005-08-01T11:30:00Z,29.6350,-93.6417,2.0,277.6994056,15.6006314,-99999.0,'11111222,11111222,99999999' 
TABS,ioos:station:wmo:42051:1,2005-08-01T12:00:00Z,29.6350,-93.6417,2.0,287.3913302,16.66164458,-99999.0,'11111222,11111222,99999999' 
TABS,ioos:station:wmo:42051:1,2005-08-01T12:30:00Z,29.6350,-93.6417,2.0,283.467606,15.62976647,-99999.0,'11111222,11111222,99999999' 
TABS,ioos:station:wmo:42051:1,2005-08-01T13:00:00Z,29.6350,-93.6417,2.0,291.3414746,15.71776065,-99999.0,'11111222,11111222,99999999' 
TABS,ioos:station:wmo:42051:1,2005-08-01T13:30:00Z,29.6350,-93.6417,2.0,300.7119251,15.58594238,-99999.0,'11111222,11111222,99999999' 
TABS,ioos:station:wmo:42051:1,2005-08-01T14:00:00Z,29.6350,-93.6417,2.0,299.5087817,15.32834303,-99999.0,'11111222,11111222,99999999' 
TABS,ioos:station:wmo:42051:1,2005-08-01T14:30:00Z,29.6350,-93.6417,2.0,296.5014461,16.02367311,-99999.0,'11111222,11111222,99999999' 
TABS,ioos:station:wmo:42051:1,2005-08-01T15:00:00Z,29.6350,-93.6417,2.0,291.159774,18.56141428,-99999.0,'11111222,11111222,99999999' 
TABS,ioos:station:wmo:42051:1,2005-08-01T15:30:00Z,29.6350,-93.6417,2.0,306.6895318,17.12208515,-99999.0,'11111222,11111222,99999999' 
TABS,ioos:station:wmo:42051:1,2005-08-01T16:00:00Z,29.6350,-93.6417,2.0,315.6620042,17.75663538,-99999.0,'11111222,11111222,99999999' 
TABS,ioos:station:wmo:42051:1,2005-08-01T16:30:00Z,29.6350,-93.6417,2.0,314.3385142,17.14141184,-99999.0,'11111222,11111222,99999999' 
TABS,ioos:station:wmo:42051:1,2005-08-01T17:00:00Z,29.6350,-93.6417,2.0,304.9378711,18.09028745,-99999.0,'11111222,11111222,99999999' 
TABS,ioos:station:wmo:42051:1,2005-08-01T17:30:00Z,29.6350,-93.6417,2.0,310.0387082,15.12512149,-99999.0,'11111222,11111222,99999999' 
TABS,ioos:station:wmo:42051:1,2005-08-01T18:00:00Z,29.6350,-93.6417,2.0,307.7004512,17.52984027,-99999.0,'11111222,11111222,99999999' 
TABS,ioos:station:wmo:42051:1,2005-08-01T18:30:00Z,29.6350,-93.6417,2.0,316.6879141,16.3271063,-99999.0,'11111222,11111222,99999999' 
TABS,ioos:station:wmo:42051:1,2005-08-01T19:00:00Z,29.6350,-93.6417,2.0,316.6576346,17.84777017,-99999.0,'11111222,11111222,99999999' 
TABS,ioos:station:wmo:42051:1,2005-08-01T19:30:00Z,29.6350,-93.6417,2.0,320.6349476,14.33159098,-99999.0,'11111222,11111222,99999999' 
TABS,ioos:station:wmo:42051:1,2005-08-01T20:00:00Z,29.6350,-93.6417,2.0,322.6077936,12.49851991,-99999.0,'11111222,11111222,99999999' 
TABS,ioos:station:wmo:42051:1,2005-08-01T20:30:00Z,29.6350,-93.6417,2.0,332.7983766,11.26600639,-99999.0,'11111222,11111222,99999999' 
TABS,ioos:station:wmo:42051:1,2005-08-01T21:00:00Z,29.6350,-93.6417,2.0,339.3757461,11.75328039,-99999.0,'11111222,11111222,99999999' 
TABS,ioos:station:wmo:42051:1,2005-08-01T21:30:00Z,29.6350,-93.6417,2.0,337.3234136,8.507696516,-99999.0,'11133222,11111222,99999999' 
TABS,ioos:station:wmo:42051:1,2005-08-01T22:00:00Z,29.6350,-93.6417,2.0,357.7506415,11.71903153,-99999.0,'11111222,11111222,99999999' 
TABS,ioos:station:wmo:42051:1,2005-08-01T22:30:00Z,29.6350,-93.6417,2.0,12.6551759,9.357317992,-99999.0,'11133222,11111222,99999999' 
TABS,ioos:station:wmo:42051:1,2005-08-01T23:00:00Z,29.6350,-93.6417,2.0,15.49443158,9.246026173,-99999.0,'11133222,11111222,99999999' 
TABS,ioos:station:wmo:42051:1,2005-08-01T23:30:00Z,29.6350,-93.6417,2.0,22.07544664,7.769581713,-99999.0,'11133222,11111222,99999999' 
TABS,ioos:station:wmo:42051:1,2005-08-02T00:00:00Z,29.6350,-93.6417,2.0,23.14133628,7.862633147,-99999.0,'11133222,11111222,99999999' 
TABS,ioos:station:wmo:42051:1,2005-08-02T00:30:00Z,29.6350,-93.6417,2.0,38.3405194,10.36541364,-99999.0,'11111222,11111222,99999999' 
TABS,ioos:station:wmo:42051:1,2005-08-02T01:00:00Z,29.6350,-93.6417,2.0,41.160939,12.88411425,-99999.0,'11111222,11111222,99999999' 
TABS,ioos:station:wmo:42051:1,2005-08-02T01:30:00Z,29.6350,-93.6417,2.0,38.36760612,10.10145039,-99999.0,'11111222,11111222,99999999' 
TABS,ioos:station:wmo:42051:1,2005-08-02T02:00:00Z,29.6350,-93.6417,2.0,43.39610371,11.36766027,-99999.0,'11111222,11111222,99999999' 
TABS,ioos:station:wmo:42051:1,2005-08-02T02:30:00Z,29.6350,-93.6417,2.0,36.88092081,10.51400019,-99999.0,'11111222,11111222,99999999' 
TABS,ioos:station:wmo:42051:1,2005-08-02T03:00:00Z,29.6350,-93.6417,2.0,37.36114728,10.26637716,-99999.0,'11111222,11111222,99999999' 
TABS,ioos:station:wmo:42051:1,2005-08-02T03:30:00Z,29.6350,-93.6417,2.0,41.51887766,10.36409668,-99999.0,'11111222,11111222,99999999' 
TABS,ioos:station:wmo:42051:1,2005-08-02T04:00:00Z,29.6350,-93.6417,2.0,44.84398669,10.38036608,-99999.0,'11111222,11111222,99999999' 
TABS,ioos:station:wmo:42051:1,2005-08-02T04:30:00Z,29.6350,-93.6417,2.0,41.39627071,11.02438207,-99999.0,'11111222,11111222,99999999' 
TABS,ioos:station:wmo:42051:1,2005-08-02T05:00:00Z,29.6350,-93.6417,2.0,47.96613918,8.199280456,-99999.0,'11133222,11111222,99999999' 
TABS,ioos:station:wmo:42051:1,2005-08-02T05:30:00Z,29.6350,-93.6417,2.0,53.43494977,5.640079787,-99999.0,'11133222,11111222,99999999' 
TABS,ioos:station:wmo:42051:1,2005-08-02T06:00:00Z,29.6350,-93.6417,2.0,38.58133351,2.277015591,-99999.0,'11133222,11111222,99999999' 
TABS,ioos:station:wmo:42051:1,2005-08-02T06:30:00Z,29.6350,-93.6417,2.0,45.67641365,4.193435346,-99999.0,'11133222,11111222,99999999' 
TABS,ioos:station:wmo:42051:1,2005-08-02T07:00:00Z,29.6350,-93.6417,2.0,30.07894156,2.553918558,-99999.0,'11133222,11111222,99999999' 
TABS,ioos:station:wmo:42051:1,2005-08-02T07:30:00Z,29.6350,-93.6417,2.0,1.548364537,1.110405331,-99999.0,'11133222,11111222,99999999' 
TABS,ioos:station:wmo:42051:1,2005-08-02T08:00:00Z,29.6350,-93.6417,2.0,146.8446338,2.3769939,-99999.0,'11133222,11111222,99999999' 
TABS,ioos:station:wmo:42051:1,2005-08-02T08:30:00Z,29.6350,-93.6417,2.0,200.577815,3.044240464,-99999.0,'11133222,11111222,99999999' 
TABS,ioos:station:wmo:42051:1,2005-08-02T09:00:00Z,29.6350,-93.6417,2.0,227.9533514,2.881752939,-99999.0,'11133222,11111222,99999999' 
TABS,ioos:station:wmo:42051:1,2005-08-02T09:30:00Z,29.6350,-93.6417,2.0,206.9540975,3.948987212,-99999.0,'11133222,11111222,99999999' 
TABS,ioos:station:wmo:42051:1,2005-08-02T10:00:00Z,29.6350,-93.6417,2.0,193.7337842,5.517762228,-99999.0,'11133222,11111222,99999999' 
TABS,ioos:station:wmo:42051:1,2005-08-02T10:30:00Z,29.6350,-93.6417,2.0,211.3517665,4.555107024,-99999.0,'11133222,11111222,99999999' 
TABS,ioos:station:wmo:42051:1,2005-08-02T11:00:00Z,29.6350,-93.6417,2.0,187.4730867,5.305063619,-99999.0,'11133222,11111222,99999999' 
TABS,ioos:station:wmo:42051:1,2005-08-02T11:30:00Z,29.6350,-93.6417,2.0,169.0659983,2.688810146,-99999.0,'11133222,11111222,99999999' 
TABS,ioos:station:wmo:42051:1,2005-08-02T12:00:00Z,29.6350,-93.6417,2.0,127.030303,1.428005602,-99999.0,'11133222,11111222,99999999' 
TABS,ioos:station:wmo:42051:1,2005-08-02T12:30:00Z,29.6350,-93.6417,2.0,132.3522713,2.449203952,-99999.0,'11133222,11111222,99999999' 
TABS,ioos:station:wmo:42051:1,2005-08-02T13:00:00Z,29.6350,-93.6417,2.0,166.7046292,3.000416638,-99999.0,'11133222,11111222,99999999' 
TABS,ioos:station:wmo:42051:1,2005-08-02T13:30:00Z,29.6350,-93.6417,2.0,43.2724541,3.049016235,-99999.0,'11133222,11111222,99999999' 
TABS,ioos:station:wmo:42051:1,2005-08-02T14:00:00Z,29.6350,-93.6417,2.0,7.37610508,3.115782406,-99999.0,'11133222,11111222,99999999' 
TABS,ioos:station:wmo:42051:1,2005-08-02T14:30:00Z,29.6350,-93.6417,2.0,338.6877866,2.393700065,-99999.0,'11133222,11111222,99999999' 
TABS,ioos:station:wmo:42051:1,2005-08-02T15:00:00Z,29.6350,-93.6417,2.0,332.7308022,2.182567296,-99999.0,'11133222,11111222,99999999' 
TABS,ioos:station:wmo:42051:1,2005-08-02T15:30:00Z,29.6350,-93.6417,2.0,304.6867552,4.147010972,-99999.0,'11133222,11111222,99999999' 
TABS,ioos:station:wmo:42051:1,2005-08-02T16:00:00Z,29.6350,-93.6417,2.0,287.0895069,3.096724076,-99999.0,'11133222,11111222,99999999' 
TABS,ioos:station:wmo:42051:1,2005-08-02T16:30:00Z,29.6350,-93.6417,2.0,316.0187977,6.364966614,-99999.0,'11133222,11111222,99999999' 
TABS,ioos:station:wmo:42051:1,2005-08-02T17:00:00Z,29.6350,-93.6417,2.0,317.6399056,8.444743927,-99999.0,'11133222,11111222,99999999' 
TABS,ioos:station:wmo:42051:1,2005-08-02T17:30:00Z,29.6350,-93.6417,2.0,332.2287376,6.159496733,-99999.0,'11133222,11111222,99999999' 
TABS,ioos:station:wmo:42051:1,2005-08-02T18:00:00Z,29.6350,-93.6417,2.0,331.787201,5.753546732,-99999.0,'11133222,11111222,99999999' 
TABS,ioos:station:wmo:42051:1,2005-08-02T18:30:00Z,29.6350,-93.6417,2.0,305.8246634,5.808967206,-99999.0,'11133222,11111222,99999999' 
TABS,ioos:station:wmo:42051:1,2005-08-02T19:00:00Z,29.6350,-93.6417,2.0,323.2644629,6.838018719,-99999.0,'11133222,11111222,99999999' 
TABS,ioos:station:wmo:42051:1,2005-08-02T19:30:00Z,29.6350,-93.6417,2.0,331.765479,7.060028329,-99999.0,'11133222,11111222,99999999' 
TABS,ioos:station:wmo:42051:1,2005-08-02T20:00:00Z,29.6350,-93.6417,2.0,336.3789036,8.185865867,-99999.0,'11133222,11111222,99999999' 
TABS,ioos:station:wmo:42051:1,2005-08-02T20:30:00Z,29.6350,-93.6417,2.0,342.8646873,6.414748631,-99999.0,'11133222,11111222,99999999' 
TABS,ioos:station:wmo:42051:1,2005-08-02T21:00:00Z,29.6350,-93.6417,2.0,355.8405779,9.374694662,-99999.0,'11133222,11111222,99999999' 
TABS,ioos:station:wmo:42051:1,2005-08-02T21:30:00Z,29.6350,-93.6417,2.0,13.36876718,9.990720695,-99999.0,'11133222,11111222,99999999' 
TABS,ioos:station:wmo:42051:1,2005-08-02T22:00:00Z,29.6350,-93.6417,2.0,32.21106286,7.091431449,-99999.0,'11133222,11111222,99999999' 
TABS,ioos:station:wmo:42051:1,2005-08-02T22:30:00Z,29.6350,-93.6417,2.0,25.08975903,12.85270789,-99999.0,'11111222,11111222,99999999' 
TABS,ioos:station:wmo:42051:1,2005-08-02T23:00:00Z,29.6350,-93.6417,2.0,37.51438221,8.358528579,-99999.0,'11133222,11111222,99999999' 
TABS,ioos:station:wmo:42051:1,2005-08-02T23:30:00Z,29.6350,-93.6417,2.0,39.09397793,10.51391935,-99999.0,'11111222,11111222,99999999' 
TABS,ioos:station:wmo:42051:1,2005-08-03T00:00:00Z,29.6350,-93.6417,2.0,46.44050459,10.97069278,-99999.0,'11111222,11111222,99999999' 
TABS,ioos:station:wmo:42051:1,2005-08-03T00:30:00Z,29.6350,-93.6417,2.0,53.99277939,10.49518937,-99999.0,'11111222,11111222,99999999' 
TABS,ioos:station:wmo:42051:1,2005-08-03T01:00:00Z,29.6350,-93.6417,2.0,51.53021984,12.24877545,-99999.0,'11111222,11111222,99999999' 
TABS,ioos:station:wmo:42051:1,2005-08-03T01:30:00Z,29.6350,-93.6417,2.0,47.18639863,12.41876403,-99999.0,'11111222,11111222,99999999' 
TABS,ioos:station:wmo:42051:1,2005-08-03T02:00:00Z,29.6350,-93.6417,2.0,57.79772324,13.56699303,-99999.0,'11111222,11111222,99999999' 
TABS,ioos:station:wmo:42051:1,2005-08-03T02:30:00Z,29.6350,-93.6417,2.0,61.05338206,12.37614641,-99999.0,'11111222,11111222,99999999' 
TABS,ioos:station:wmo:42051:1,2005-08-03T03:00:00Z,29.6350,-93.6417,2.0,45.56671036,12.15575995,-99999.0,'11111222,11111222,99999999' 
TABS,ioos:station:wmo:42051:1,2005-08-03T03:30:00Z,29.6350,-93.6417,2.0,49.82469139,12.69512111,-99999.0,'11111222,11111222,99999999' 
TABS,ioos:station:wmo:42051:1,2005-08-03T04:00:00Z,29.6350,-93.6417,2.0,44.87514219,12.96836921,-99999.0,'11111222,11111222,99999999' 
TABS,ioos:station:wmo:42051:1,2005-08-03T04:30:00Z,29.6350,-93.6417,2.0,35.27541827,11.93062027,-99999.0,'11111222,11111222,99999999' 
TABS,ioos:station:wmo:42051:1,2005-08-03T05:00:00Z,29.6350,-93.6417,2.0,41.044469,10.66028142,-99999.0,'11111222,11111222,99999999' 
TABS,ioos:station:wmo:42051:1,2005-08-03T05:30:00Z,29.6350,-93.6417,2.0,46.98248594,11.24265538,-99999.0,'11111222,11111222,99999999' 
TABS,ioos:station:wmo:42051:1,2005-08-03T06:00:00Z,29.6350,-93.6417,2.0,34.44522833,8.839915158,-99999.0,'11133222,11111222,99999999' 
TABS,ioos:station:wmo:42051:1,2005-08-03T06:30:00Z,29.6350,-93.6417,2.0,34.35188771,6.964725407,-99999.0,'11133222,11111222,99999999' 
TABS,ioos:station:wmo:42051:1,2005-08-03T07:00:00Z,29.6350,-93.6417,2.0,18.43511617,6.577537533,-99999.0,'11133222,11111222,99999999' 
TABS,ioos:station:wmo:42051:1,2005-08-03T07:30:00Z,29.6350,-93.6417,2.0,358.252053,5.572593651,-99999.0,'11133222,11111222,99999999' 
TABS,ioos:station:wmo:42051:1,2005-08-03T08:00:00Z,29.6350,-93.6417,2.0,26.69380905,3.984683174,-99999.0,'11133222,11111222,99999999' 
TABS,ioos:station:wmo:42051:1,2005-08-03T08:30:00Z,29.6350,-93.6417,2.0,29.78468688,3.583364341,-99999.0,'11133222,11111222,99999999' 
TABS,ioos:station:wmo:42051:1,2005-08-03T09:00:00Z,29.6350,-93.6417,2.0,76.07713371,2.452039967,-99999.0,'11133222,11111222,99999999' 
TABS,ioos:station:wmo:42051:1,2005-08-03T09:30:00Z,29.6350,-93.6417,2.0,95.4861436,3.556290202,-99999.0,'11133222,11111222,99999999' 
TABS,ioos:station:wmo:42051:1,2005-08-03T10:00:00Z,29.6350,-93.6417,2.0,126.8698114,2.5,-99999.0,'11133222,11111222,99999999' 
TABS,ioos:station:wmo:42051:1,2005-08-03T10:30:00Z,29.6350,-93.6417,2.0,132.1374962,3.115156497,-99999.0,'11133222,11111222,99999999' 
TABS,ioos:station:wmo:42051:1,2005-08-03T11:00:00Z,29.6350,-93.6417,2.0,172.2529489,4.228593147,-99999.0,'11133222,11111222,99999999' 
TABS,ioos:station:wmo:42051:1,2005-08-03T11:30:00Z,29.6350,-93.6417,2.0,136.4740897,3.847934511,-99999.0,'11133222,11111222,99999999' 
TABS,ioos:station:wmo:42051:1,2005-08-03T12:00:00Z,29.6350,-93.6417,2.0,147.3389532,4.632493929,-99999.0,'11133222,11111222,99999999' 
TABS,ioos:station:wmo:42051:1,2005-08-03T13:00:00Z,29.6350,-93.6417,2.0,106.0098323,3.662034953,-99999.0,'11133222,11111222,99999999' 
TABS,ioos:station:wmo:42051:1,2005-08-03T13:30:00Z,29.6350,-93.6417,2.0,131.0217107,2.955757094,-99999.0,'11133222,11111222,99999999' 
TABS,ioos:station:wmo:42051:1,2005-08-03T14:30:00Z,29.6350,-93.6417,2.0,81.86991666,0.070710678,-99999.0,'11133222,11111222,99999999' 
TABS,ioos:station:wmo:42051:1,2005-08-03T15:00:00Z,29.6350,-93.6417,2.0,275.301335,0.97416631,-99999.0,'11133222,11111222,99999999' 
TABS,ioos:station:wmo:42051:1,2005-08-03T16:00:00Z,29.6350,-93.6417,2.0,287.2917792,4.911995521,-99999.0,'11133222,11111222,99999999' 
TABS,ioos:station:wmo:42051:1,2005-08-03T16:30:00Z,29.6350,-93.6417,2.0,274.4126387,3.249630748,-99999.0,'11133222,11111222,99999999' 
TABS,ioos:station:wmo:42051:1,2005-08-03T17:00:00Z,29.6350,-93.6417,2.0,275.9735999,5.861825654,-99999.0,'11133222,11111222,99999999' 
TABS,ioos:station:wmo:42051:1,2005-08-03T17:30:00Z,29.6350,-93.6417,2.0,265.4779562,7.864477096,-99999.0,'11133222,11111222,99999999' 
TABS,ioos:station:wmo:42051:1,2005-08-03T18:00:00Z,29.6350,-93.6417,2.0,275.4967219,8.24792095,-99999.0,'11133222,11111222,99999999' 
TABS,ioos:station:wmo:42051:1,2005-08-03T18:30:00Z,29.6350,-93.6417,2.0,281.6118802,10.43352289,-99999.0,'11111222,11111222,99999999' 
TABS,ioos:station:wmo:42051:1,2005-08-03T19:00:00Z,29.6350,-93.6417,2.0,293.8826145,12.32529919,-99999.0,'11111222,11111222,99999999' 
TABS,ioos:station:wmo:42051:1,2005-08-03T19:30:00Z,29.6350,-93.6417,2.0,296.6497095,9.118695082,-99999.0,'11133222,11111222,99999999' 
TABS,ioos:station:wmo:42051:1,2005-08-03T20:00:00Z,29.6350,-93.6417,2.0,284.5161874,5.505751538,-99999.0,'11133222,11111222,99999999' 
TABS,ioos:station:wmo:42051:1,2005-08-03T20:30:00Z,29.6350,-93.6417,2.0,278.935371,5.537192429,-99999.0,'11133222,11111222,99999999' 
TABS,ioos:station:wmo:42051:1,2005-08-03T21:00:00Z,29.6350,-93.6417,2.0,308.8188887,6.76391159,-99999.0,'11133222,11111222,99999999' 
TABS,ioos:station:wmo:42051:1,2005-08-03T21:30:00Z,29.6350,-93.6417,2.0,309.851475,11.267249,-99999.0,'11111222,11111222,99999999' 
TABS,ioos:station:wmo:42051:1,2005-08-03T22:00:00Z,29.6350,-93.6417,2.0,307.0050907,11.89603295,-99999.0,'11111222,11111222,99999999' 
TABS,ioos:station:wmo:42051:1,2005-08-03T22:30:00Z,29.6350,-93.6417,2.0,309.7293119,8.620730827,-99999.0,'11133222,11111222,99999999' 
TABS,ioos:station:wmo:42051:1,2005-08-03T23:00:00Z,29.6350,-93.6417,2.0,325.5976261,8.920269054,-99999.0,'11133222,11111222,99999999' 
TABS,ioos:station:wmo:42051:1,2005-08-03T23:30:00Z,29.6350,-93.6417,2.0,338.198852,11.47040104,-99999.0,'11111222,11111222,99999999' 
TABS,ioos:station:wmo:42051:1,2005-08-04T00:00:00Z,29.6350,-93.6417,2.0,336.7536707,10.97065632,-99999.0,'11111222,11111222,99999999' 
TABS,ioos:station:wmo:42051:1,2005-08-04T00:30:00Z,29.6350,-93.6417,2.0,5.05926505,11.11329384,-99999.0,'11111222,11111222,99999999' 
TABS,ioos:station:wmo:42051:1,2005-08-04T01:00:00Z,29.6350,-93.6417,2.0,5.258293738,12.2214279,-99999.0,'11111222,11111222,99999999' 
TABS,ioos:station:wmo:42051:1,2005-08-04T01:30:00Z,29.6350,-93.6417,2.0,18.75314307,10.82464318,-99999.0,'11111222,11111222,99999999' 
TABS,ioos:station:wmo:42051:1,2005-08-04T02:00:00Z,29.6350,-93.6417,2.0,11.74732411,11.05146597,-99999.0,'11111222,11111222,99999999' 
TABS,ioos:station:wmo:42051:1,2005-08-04T02:30:00Z,29.6350,-93.6417,2.0,0.831157742,13.10137779,-99999.0,'11111222,11111222,99999999' 
TABS,ioos:station:wmo:42051:1,2005-08-04T03:00:00Z,29.6350,-93.6417,2.0,1.945811187,14.13815052,-99999.0,'11111222,11111222,99999999' 
TABS,ioos:station:wmo:42051:1,2005-08-04T03:30:00Z,29.6350,-93.6417,2.0,3.313028212,10.03677239,-99999.0,'11111222,11111222,99999999' 
TABS,ioos:station:wmo:42051:1,2005-08-04T04:00:00Z,29.6350,-93.6417,2.0,0.778371717,11.78108654,-99999.0,'11111222,11111222,99999999' 
TABS,ioos:station:wmo:42051:1,2005-08-04T04:30:00Z,29.6350,-93.6417,2.0,0.504264717,10.23039589,-99999.0,'11111222,11111222,99999999' 
TABS,ioos:station:wmo:42051:1,2005-08-04T05:00:00Z,29.6350,-93.6417,2.0,7.409631864,11.24388723,-99999.0,'11111222,11111222,99999999' 
TABS,ioos:station:wmo:42051:1,2005-08-04T05:30:00Z,29.6350,-93.6417,2.0,351.1253789,12.18589348,-99999.0,'11111222,11111222,99999999' 
TABS,ioos:station:wmo:42051:1,2005-08-04T06:00:00Z,29.6350,-93.6417,2.0,344.9615405,9.28811068,-99999.0,'11133222,11111222,99999999' 
TABS,ioos:station:wmo:42051:1,2005-08-04T06:30:00Z,29.6350,-93.6417,2.0,339.3270958,8.016164918,-99999.0,'11133222,11111222,99999999' 
TABS,ioos:station:wmo:42051:1,2005-08-04T07:00:00Z,29.6350,-93.6417,2.0,331.5028602,8.090222494,-99999.0,'11133222,11111222,99999999' 
TABS,ioos:station:wmo:42051:1,2005-08-04T07:30:00Z,29.6350,-93.6417,2.0,329.3070813,4.721408688,-99999.0,'11133222,11111222,99999999' 
TABS,ioos:station:wmo:42051:1,2005-08-04T08:00:00Z,29.6350,-93.6417,2.0,301.4813865,4.748989366,-99999.0,'11133222,11111222,99999999' 
TABS,ioos:station:wmo:42051:1,2005-08-04T08:30:00Z,29.6350,-93.6417,2.0,279.0254732,6.247343435,-99999.0,'11133222,11111222,99999999' 
TABS,ioos:station:wmo:42051:1,2005-08-04T09:00:00Z,29.6350,-93.6417,2.0,263.9571613,8.074862228,-99999.0,'11133222,11111222,99999999' 
TABS,ioos:station:wmo:42051:1,2005-08-04T09:30:00Z,29.6350,-93.6417,2.0,265.9539716,10.20542993,-99999.0,'11111222,11111222,99999999' 
TABS,ioos:station:wmo:42051:1,2005-08-04T10:00:00Z,29.6350,-93.6417,2.0,255.137948,7.407806693,-99999.0,'11133222,11111222,99999999' 
TABS,ioos:station:wmo:42051:1,2005-08-04T10:30:00Z,29.6350,-93.6417,2.0,234.6841168,4.497654945,-99999.0,'11133222,11111222,99999999' 
TABS,ioos:station:wmo:42051:1,2005-08-04T11:00:00Z,29.6350,-93.6417,2.0,284.1193092,3.361547263,-99999.0,'11133222,11111222,99999999' 
TABS,ioos:station:wmo:42051:1,2005-08-04T11:30:00Z,29.6350,-93.6417,2.0,265.3488648,5.056649088,-99999.0,'11133222,11111222,99999999' 
TABS,ioos:station:wmo:42051:1,2005-08-04T12:00:00Z,29.6350,-93.6417,2.0,267.7089744,7.005597762,-99999.0,'11133222,11111222,99999999' 
TABS,ioos:station:wmo:42051:1,2005-08-04T12:30:00Z,29.6350,-93.6417,2.0,259.3457014,6.166295484,-99999.0,'11133222,11111222,99999999' 
TABS,ioos:station:wmo:42051:1,2005-08-04T13:00:00Z,29.6350,-93.6417,2.0,264.1788684,6.212028654,-99999.0,'11133222,11111222,99999999' 
TABS,ioos:station:wmo:42051:1,2005-08-04T13:30:00Z,29.6350,-93.6417,2.0,252.7212886,7.676411922,-99999.0,'11133222,11111222,99999999' 
TABS,ioos:station:wmo:42051:1,2005-08-04T14:00:00Z,29.6350,-93.6417,2.0,258.5562947,11.79445632,-99999.0,'11111222,11111222,99999999' 
TABS,ioos:station:wmo:42051:1,2005-08-04T14:30:00Z,29.6350,-93.6417,2.0,267.8471988,7.455259888,-99999.0,'11133222,11111222,99999999' 
TABS,ioos:station:wmo:42051:1,2005-08-04T15:00:00Z,29.6350,-93.6417,2.0,265.9417475,7.348421599,-99999.0,'11133222,11111222,99999999' 
TABS,ioos:station:wmo:42051:1,2005-08-04T15:30:00Z,29.6350,-93.6417,2.0,276.0049942,6.787238024,-99999.0,'11133222,11111222,99999999' 
TABS,ioos:station:wmo:42051:1,2005-08-04T16:00:00Z,29.6350,-93.6417,2.0,275.0354938,6.836380621,-99999.0,'11133222,11111222,99999999' 
TABS,ioos:station:wmo:42051:1,2005-08-04T16:30:00Z,29.6350,-93.6417,2.0,280.117944,8.481898372,-99999.0,'11133222,11111222,99999999' 
TABS,ioos:station:wmo:42051:1,2005-08-04T17:00:00Z,29.6350,-93.6417,2.0,300.7762511,8.892249434,-99999.0,'11133222,11111222,99999999' 
TABS,ioos:station:wmo:42051:1,2005-08-04T17:30:00Z,29.6350,-93.6417,2.0,302.8166876,10.18547986,-99999.0,'11111222,11111222,99999999' 
TABS,ioos:station:wmo:42051:1,2005-08-04T18:00:00Z,29.6350,-93.6417,2.0,314.330781,8.471717653,-99999.0,'11133222,11111222,99999999' 